When you browse on this site, cookies collect data to enhance your experience and personalize the content and advertising you see.
Visit our Privacy Policy to learn more. By continuing to use the site, you agree to this use of cookies and data.
  • In Spain
  • List of Countries
  • For 7 days
  • Water Temperature
  • Weather Map
  • Weather Widgets
  • user-avatar
    Login

    Hourly Weather Illapel

    Today, 28 January, Tuesday

    Time Temperature Precipitation Wind Pressure Humidity
    00:00 +16°C° 0 mm 0 mps 722 mmHg 85%
    01:00 +16°C° 0 mm 0 mps 722 mmHg 86%
    02:00 +16°C° 0 mm 0 mps 721 mmHg 86%
    03:00 +16°C° 0 mm 0 mps 721 mmHg 86%
    04:00 +16°C° 0 mm 0 mps 721 mmHg 86%
    05:00 +18°C° 0 mm 0 mps 722 mmHg 77%
    06:00 +20°C° 0 mm 0 mps 722 mmHg 69%
    07:00 +24°C° 0 mm 1 mps 722 mmHg 61%
    08:00 +25°C° 0 mm 1 mps 723 mmHg 55%
    09:00 +27°C° 0 mm 2 mps 723 mmHg 49%
    10:00 +29°C° 0 mm 3 mps 723 mmHg 43%
    11:00 +29°C° 0 mm 4 mps 723 mmHg 41%
    12:00 +30°C° 0 mm 4 mps 723 mmHg 39%
    13:00 +30°C° 0 mm 4 mps 723 mmHg 36%
    14:00 +30°C° 0 mm 4 mps 723 mmHg 39%
    15:00 +29°C° 0 mm 4 mps 723 mmHg 41%
    16:00 +28°C° 0 mm 4 mps 723 mmHg 43%
    17:00 +25°C° 0 mm 3 mps 723 mmHg 56%
    18:00 +23°C° 0 mm 2 mps 723 mmHg 69%
    19:00 +20°C° 0 mm 1 mps 723 mmHg 81%
    20:00 +19°C° 0 mm 1 mps 722 mmHg 84%
    21:00 +16°C° 0 mm 0 mps 722 mmHg 87%
    22:00 +15°C° 0 mm 0 mps 722 mmHg 90%
    23:00 +15°C° 0 mm 0 mps 722 mmHg 90%

    Tomorrow, 29 January, Wednesday

    Time Temperature Precipitation Wind Pressure Humidity
    00:00 +14°C° 0 mm 0 mps 722 mmHg 90%
    01:00 +14°C° 0 mm 0 mps 721 mmHg 91%
    02:00 +14°C° 0 mm 0 mps 721 mmHg 92%
    03:00 +13°C° 0 mm 0 mps 721 mmHg 93%
    04:00 +13°C° 0 mm 0 mps 721 mmHg 94%
    05:00 +15°C° 0 mm 0 mps 722 mmHg 87%
    06:00 +19°C° 0 mm 1 mps 722 mmHg 81%
    07:00 +21°C° 0 mm 1 mps 723 mmHg 75%
    08:00 +23°C° 0 mm 2 mps 723 mmHg 66%
    09:00 +25°C° 0 mm 2 mps 723 mmHg 56%
    10:00 +27°C° 0 mm 3 mps 723 mmHg 47%
    11:00 +28°C° 0 mm 4 mps 723 mmHg 44%
    12:00 +29°C° 0 mm 4 mps 723 mmHg 42%
    13:00 +29°C° 0 mm 4 mps 723 mmHg 39%
    14:00 +28°C° 0 mm 4 mps 723 mmHg 41%
    15:00 +28°C° 0 mm 4 mps 723 mmHg 43%
    16:00 +27°C° 0 mm 4 mps 723 mmHg 44%
    17:00 +24°C° 0 mm 3 mps 723 mmHg 54%
    18:00 +21°C° 0 mm 2 mps 723 mmHg 64%
    19:00 +19°C° 0 mm 1 mps 723 mmHg 74%
    20:00 +18°C° 0 mm 1 mps 723 mmHg 77%
    21:00 +18°C° 0 mm 1 mps 723 mmHg 79%
    22:00 +15°C° 0 mm 0 mps 723 mmHg 82%
    23:00 +15°C° 0 mm 0 mps 723 mmHg 83%

    Day after tomorrow, 30 January, Thursday

    Time Temperature Precipitation Wind Pressure Humidity
    00:00 +14°C° 0 mm 0 mps 722 mmHg 84%
    01:00 +14°C° 0 mm 0 mps 722 mmHg 84%
    02:00 +14°C° 0 mm 0 mps 722 mmHg 84%
    03:00 +13°C° 0 mm 0 mps 721 mmHg 84%
    04:00 +13°C° 0 mm 0 mps 721 mmHg 84%
    05:00 +16°C° 0 mm 0 mps 722 mmHg 73%
    06:00 +18°C° 0 mm 0 mps 722 mmHg 63%
    07:00 +23°C° 0 mm 1 mps 723 mmHg 53%
    08:00 +25°C° 0 mm 1 mps 723 mmHg 48%
    09:00 +27°C° 0 mm 2 mps 723 mmHg 42%
    10:00 +29°C° 0 mm 3 mps 723 mmHg 37%
    11:00 +30°C° 0 mm 4 mps 723 mmHg 36%
    12:00 +30°C° 0 mm 4 mps 723 mmHg 35%
    13:00 +32°C° 0 mm 5 mps 723 mmHg 35%
    14:00 +30°C° 0 mm 4 mps 723 mmHg 36%
    15:00 +29°C° 0 mm 4 mps 723 mmHg 38%
    16:00 +28°C° 0 mm 3 mps 723 mmHg 39%
    17:00 +26°C° 0 mm 3 mps 723 mmHg 47%
    18:00 +23°C° 0 mm 2 mps 723 mmHg 56%
    19:00 +20°C° 0 mm 1 mps 723 mmHg 64%
    20:00 +19°C° 0 mm 1 mps 723 mmHg 68%
    21:00 +17°C° 0 mm 0 mps 723 mmHg 71%
    22:00 +16°C° 0 mm 0 mps 723 mmHg 75%
    23:00 +16°C° 0 mm 0 mps 722 mmHg 77%

    31 January, Friday

    Time Temperature Precipitation Wind Pressure Humidity
    00:00 +15°C° 0 mm 0 mps 722 mmHg 79%
    01:00 +15°C° 0 mm 0 mps 722 mmHg 80%
    02:00 +15°C° 0 mm 0 mps 722 mmHg 81%
    03:00 +14°C° 0 mm 0 mps 722 mmHg 82%
    04:00 +14°C° 0 mm 0 mps 722 mmHg 83%
    05:00 +16°C° 0 mm 0 mps 722 mmHg 73%
    06:00 +19°C° 0 mm 0 mps 723 mmHg 63%
    07:00 +21°C° 0 mm 0 mps 723 mmHg 52%
    08:00 +25°C° 0 mm 1 mps 723 mmHg 47%
    09:00 +27°C° 0 mm 2 mps 724 mmHg 41%
    10:00 +29°C° 0 mm 3 mps 724 mmHg 36%
    11:00 +30°C° 0 mm 4 mps 724 mmHg 35%
    12:00 +30°C° 0 mm 4 mps 724 mmHg 35%
    13:00 +32°C° 0 mm 4 mps 724 mmHg 34%
    14:00 +30°C° 0 mm 4 mps 724 mmHg 36%
    15:00 +29°C° 0 mm 4 mps 723 mmHg 37%
    16:00 +28°C° 0 mm 3 mps 723 mmHg 38%
    17:00 +26°C° 0 mm 3 mps 723 mmHg 48%
    18:00 +23°C° 0 mm 2 mps 723 mmHg 58%
    19:00 +20°C° 0 mm 1 mps 723 mmHg 68%
    20:00 +19°C° 0 mm 1 mps 723 mmHg 72%
    21:00 +16°C° 0 mm 0 mps 723 mmHg 76%
    22:00 +15°C° 0 mm 0 mps 723 mmHg 80%
    23:00 +15°C° 0 mm 0 mps 722 mmHg 81%

    1 February, Saturday

    Time Temperature Precipitation Wind Pressure Humidity
    00:00 +15°C° 0 mm 0 mps 722 mmHg 82%
    01:00 +14°C° 0 mm 0 mps 722 mmHg 83%
    02:00 +14°C° 0 mm 0 mps 722 mmHg 83%
    03:00 +14°C° 0 mm 0 mps 722 mmHg 84%
    04:00 +13°C° 0 mm 0 mps 721 mmHg 85%
    05:00 +15°C° 0 mm 0 mps 722 mmHg 77%
    06:00 +17°C° 0 mm 0 mps 722 mmHg 70%
    07:00 +21°C° 0 mm 1 mps 723 mmHg 62%
    08:00 +24°C° 0 mm 1 mps 723 mmHg 55%
    09:00 +26°C° 0 mm 2 mps 723 mmHg 48%
    10:00 +28°C° 0 mm 3 mps 724 mmHg 41%
    11:00 +28°C° 0 mm 3 mps 724 mmHg 40%
    12:00 +29°C° 0 mm 4 mps 723 mmHg 38%
    13:00 +30°C° 0 mm 4 mps 723 mmHg 37%
    14:00 +29°C° 0 mm 4 mps 723 mmHg 38%
    15:00 +28°C° 0 mm 4 mps 723 mmHg 39%
    16:00 +28°C° 0 mm 4 mps 722 mmHg 40%
    17:00 +25°C° 0 mm 3 mps 722 mmHg 51%
    18:00 +21°C° 0 mm 2 mps 722 mmHg 61%
    19:00 +19°C° 0 mm 1 mps 722 mmHg 72%
    20:00 +18°C° 0 mm 1 mps 722 mmHg 75%
    21:00 +15°C° 0 mm 0 mps 722 mmHg 78%
    22:00 +14°C° 0 mm 0 mps 722 mmHg 82%
    23:00 +14°C° 0 mm 0 mps 722 mmHg 82%

    2 February, Sunday

    Time Temperature Precipitation Wind Pressure Humidity
    00:00 +14°C° 0 mm 0 mps 722 mmHg 83%
    01:00 +14°C° 0 mm 0 mps 721 mmHg 83%
    02:00 +13°C° 0 mm 0 mps 721 mmHg 83%
    03:00 +13°C° 0 mm 0 mps 721 mmHg 84%
    04:00 +13°C° 0 mm 0 mps 721 mmHg 84%
    05:00 +15°C° 0 mm 0 mps 722 mmHg 75%
    06:00 +20°C° 0 mm 1 mps 722 mmHg 67%
    07:00 +22°C° 0 mm 1 mps 723 mmHg 58%
    08:00 +24°C° 0 mm 2 mps 723 mmHg 51%
    09:00 +26°C° 0 mm 2 mps 723 mmHg 44%
    10:00 +28°C° 0 mm 3 mps 724 mmHg 37%
    11:00 +29°C° 0 mm 4 mps 724 mmHg 37%
    12:00 +29°C° 0 mm 4 mps 724 mmHg 36%
    13:00 +30°C° 0 mm 4 mps 723 mmHg 35%
    14:00 +29°C° 0 mm 4 mps 723 mmHg 37%
    15:00 +28°C° 0 mm 4 mps 723 mmHg 38%
    16:00 +28°C° 0 mm 4 mps 723 mmHg 40%
    17:00 +25°C° 0 mm 3 mps 723 mmHg 53%
    18:00 +21°C° 0 mm 2 mps 723 mmHg 66%
    19:00 +19°C° 0 mm 1 mps 723 mmHg 79%
    20:00 +18°C° 0 mm 1 mps 723 mmHg 82%
    21:00 +16°C° 0 mm 1 mps 723 mmHg 85%
    22:00 +14°C° 0 mm 0 mps 723 mmHg 88%
    23:00 +14°C° 0 mm 0 mps 723 mmHg 88%
    Show more